TimeAKST,TemperatureF,Dew PointF,Humidity,Sea Level PressureIn,VisibilityMPH,Wind Direction,Wind SpeedMPH,Gust SpeedMPH,PrecipitationIn,Events,Conditions,WindDirDegrees,DateUTC
12:01 AM,-22.0,-27.9,74,30.07,10.0,SSW,5.8,-,N/A,,Clear,210,2012-12-29 09:01:00
1:01 AM,-20.0,-25.1,78,30.06,10.0,Calm,Calm,-,N/A,,Clear,0,2012-12-29 10:01:00
2:01 AM,-20.9,-26.0,77,30.06,10.0,Calm,Calm,-,N/A,,Clear,0,2012-12-29 11:01:00
3:01 AM,-20.0,-25.1,78,30.05,10.0,Calm,Calm,-,N/A,,Clear,0,2012-12-29 12:01:00
4:01 AM,-18.9,-24.0,78,30.04,10.0,East,3.5,-,N/A,,Clear,80,2012-12-29 13:01:00
5:01 AM,-20.0,-26.0,74,30.02,10.0,Calm,Calm,-,N/A,,Clear,0,2012-12-29 14:01:00
6:01 AM,-20.0,-25.1,78,30.01,10.0,Calm,Calm,-,N/A,,Clear,0,2012-12-29 15:01:00
7:01 AM,-18.9,-24.0,78,29.99,10.0,East,4.6,-,N/A,,Clear,90,2012-12-29 16:01:00
8:01 AM,-18.0,-22.0,82,29.97,9.0,East,5.8,-,N/A,,Clear,80,2012-12-29 17:01:00
9:01 AM,-15.0,-18.9,82,29.95,10.0,ENE,5.8,-,N/A,,Clear,60,2012-12-29 18:01:00
10:01 AM,-11.0,-15.0,83,29.94,9.0,ENE,9.2,-,N/A,,Clear,70,2012-12-29 19:01:00
11:01 AM,-11.9,-16.1,82,29.93,7.0,ENE,8.1,-,N/A,,Clear,70,2012-12-29 20:01:00
12:01 PM,-11.0,-15.0,83,29.92,7.0,ENE,11.5,-,N/A,,Clear,70,2012-12-29 21:01:00
1:01 PM,-13.0,-17.0,82,29.93,8.0,ENE,10.4,-,N/A,,Clear,70,2012-12-29 22:01:00
2:01 PM,-13.0,-17.0,82,29.93,10.0,ENE,11.5,-,N/A,,Clear,60,2012-12-29 23:01:00
3:01 PM,-13.0,-17.0,82,29.92,10.0,ENE,10.4,-,N/A,,Clear,60,2012-12-30 00:01:00
4:01 PM,-13.0,-17.0,82,29.92,10.0,ENE,11.5,-,N/A,,Clear,60,2012-12-30 01:01:00
5:01 PM,-13.0,-17.0,82,29.91,10.0,ENE,13.8,-,N/A,,Clear,60,2012-12-30 02:01:00
6:01 PM,-11.9,-16.1,82,29.92,8.0,East,10.4,-,N/A,,Clear,80,2012-12-30 03:01:00
7:01 PM,-11.0,-15.0,83,29.92,7.0,ENE,11.5,-,N/A,,Clear,60,2012-12-30 04:01:00
8:01 PM,-9.9,-14.1,82,29.94,8.0,ENE,8.1,-,N/A,,Clear,70,2012-12-30 05:01:00
9:01 PM,-9.9,-14.1,82,29.94,10.0,ENE,9.2,-,N/A,,Clear,70,2012-12-30 06:01:00
10:01 PM,-9.0,-13.0,83,29.95,10.0,ENE,9.2,-,N/A,,Clear,60,2012-12-30 07:01:00
11:01 PM,-9.9,-13.0,86,29.95,10.0,ENE,10.4,-,N/A,,Clear,70,2012-12-30 08:01:00